Miscellaneous Local Product
Issued by NWS Hastings, NE

Home | Current Version | Previous Version | Graphics & Text | Print | Product List | Glossary On
Versions: 1 2 3 4 5 6 7 8 9 10 11 12 13 14 15 16 17 18 19 20 21 22 23 24 25 26 27 28 29 30 31 32 33 34 35 36 37 38 39 40 41 42 43 44 45 46 47 48 49 50
084
AXUS43 KGID 141202
MISGRI

GID CWA HOURLY WEATHER ROUNDUP
NATIONAL WEATHER SERVICE HASTINGS NE
600 AM CST THU DEC 14 2017

NOTE: "FAIR" INDICATES FEW OR NO CLOUDS BELOW 12,000 FEET WITH NO
SIGNIFICANT WEATHER AND/OR OBSTRUCTIONS TO VISIBILITY.

...SOUTH CENTRAL NEBRASKA...

CITY           SKY/WX    TMP DP  RH WIND       PRES   REMARKS
GRAND ISLAND   CLOUDY    30  26  85 W8        30.05F WCI  22
KEARNEY        PTCLDY    32  26  78 W7        30.06  WCI  26
HASTINGS       PTCLDY    30  24  78 W7        30.05F WCI  23
ORD            CLOUDY    29  25  85 NW7       30.03S WCI  22
YORK           CLOUDY    32  27  80 CALM      30.04S
AURORA         CLOUDY    30  26  83 W8        30.05S WCI  23
LEXINGTON      CLOUDY    33  24  70 NW7       30.06F WCI  27
HOLDREGE       CLOUDY    32  26  80 W6        30.07R WCI  26
HEBRON         CLOUDY    33  27  77 NW5       30.06S WCI  29

...NEBRASKA PANHANDLE...

CITY           SKY/WX    TMP DP  RH WIND       PRES   REMARKS
CHADRON        CLOUDY    37  24  59 W18G28    30.10F WCI  27
ALLIANCE       CLOUDY    33  24  69 NW13      30.09S WCI  24
SCOTTSBLUFF    CLOUDY    35  24  64 W10       30.13F WCI  27
SIDNEY         PTCLDY    32  21  64 NW15      30.12R WCI  22

...WESTERN AND NORTH CENTRAL NEBRASKA...

CITY           SKY/WX    TMP DP  RH WIND       PRES   REMARKS
VALENTINE      CLOUDY    35  32  88 W9        30.03S WCI  28
AINSWORTH      CLOUDY    35  32  90 NW12      30.02S WCI  27
ONEILL         CLOUDY    28  25  91 W5        30.02R WCI  22
BROKEN BOW     CLOUDY    36  25  64 NW14      30.04S WCI  27
IMPERIAL       CLOUDY    36  29  75 W14       30.12S WCI  27
NORTH PLATTE   CLOUDY    38  27  64 W10       30.08S WCI  31
MCCOOK         CLOUDY    37  23  56 W12       30.11S WCI  29

...EASTERN NEBRASKA...

CITY           SKY/WX    TMP DP  RH WIND       PRES   REMARKS
NORFOLK        CLOUDY    34  26  72 W8        30.01R WCI  27
SO SIOUX CITY  CLOUDY    31  25  78 E6        30.02S WCI  25
TEKAMAH        CLOUDY    33  25  72 NW5       30.03S WCI  29
COLUMBUS       CLOUDY    33  25  72 W5        30.04R WCI  29
ALBION         CLOUDY    30  25  80 NW5       30.03R WCI  25
OMAHA EPPLEY   CLOUDY    34  27  75 NW6       30.04R WCI  29
OFFUTT AFB     CLOUDY    34  28  76 W3        30.03R
MILLARD        CLOUDY    36  29  76 NW6       30.04R WCI  31
LINCOLN        CLOUDY    37  23  56 W5        30.06S WCI  33
NEBRASKA CITY  CLOUDY    34  28  77 CALM      30.03F
BEATRICE       CLOUDY    35  27  72 NW6       30.05S WCI  30
FALLS CITY     CLOUDY    35  25  66 NW3       30.04R

...NORTHERN KANSAS...

CITY           SKY/WX    TMP DP  RH WIND       PRES   REMARKS
GOODLAND       CLOUDY    34  28  79 NW16      30.14R WCI  24
HILL CITY      CLOUDY    31  22  69 W6        30.13R WCI  25
NORTON         CLOUDY    36  19  51 W7        30.10R WCI  30
PHILLIPSBURG   CLEAR     30  23  74 SW6       30.11R WCI  24
SMITH CENTER   PTCLDY    27  23  86 NW3       30.10S
HAYS           CLOUDY    31  22  69 CALM      30.13R
RUSSELL        MOCLDY    26  22  84 W8        30.11R WCI  18
CONCORDIA      PTCLDY    29  25  85 W7        30.07F WCI  22
SALINA         CLOUDY    32  26  78 NW7       30.10S WCI  26
TOPEKA         CLOUDY    36  28  73 W5        30.06R WCI  32



USA.gov is the U.S. government's official web portal to all federal, state and local government web resources and services.